�N����,����,�g�[���i���ԁj���x,�g�[�����x,��g�[���i���ցj���x,����
 2003/08/01, 0:00,27.5,65,27,-9.9
 2003/08/01, 0:15,27.5,65,27,-9.9
 2003/08/01, 0:30,27.5,65,27,-9.9
 2003/08/01, 0:45,27.5,65,27,-9.9
 2003/08/01, 1:00,27.5,65,27,-9.9
 2003/08/01, 1:15,27.5,65,27,-9.9
 2003/08/01, 1:30,27.5,66,27,-9.9
 2003/08/01, 1:45,27.5,66,27,-9.9
 2003/08/01, 2:00,27.4,66,27,-9.9
 2003/08/01, 2:15,27.4,66,27,-9.9
 2003/08/01, 2:30,27.4,66,27,-9.9
 2003/08/01, 2:45,27.3,66,27,-9.9
 2003/08/01, 3:00,27.3,66,26.9,-9.9
 2003/08/01, 3:15,27.3,67,26.9,-9.9
 2003/08/01, 3:30,27.3,67,26.9,-9.9
 2003/08/01, 3:45,27.3,66,26.9,-9.9
 2003/08/01, 4:00,27.3,66,26.9,-9.9
 2003/08/01, 4:15,27.2,67,26.9,-9.9
 2003/08/01, 4:30,27.2,67,26.8,-9.9
 2003/08/01, 4:45,27.2,67,26.8,-9.9
 2003/08/01, 5:00,27.2,67,26.8,-9.9
 2003/08/01, 5:15,27.1,67,26.8,-9.9
 2003/08/01, 5:30,27.1,67,26.7,-9.9
 2003/08/01, 5:45,27.1,67,26.7,-9.9
 2003/08/01, 6:00,27,67,26.7,-9.9
 2003/08/01, 6:15,27.1,67,26.7,-9.9
 2003/08/01, 6:30,27.1,67,26.7,-9.9
 2003/08/01, 6:45,27.2,67,26.7,-9.9
 2003/08/01, 7:00,27.3,67,26.7,-9.9
 2003/08/01, 7:15,26.4,71,26.6,-9.9
 2003/08/01, 7:30,26.1,72,26.5,-9.9
 2003/08/01, 7:45,26.4,72,26.5,-9.9
 2003/08/01, 8:00,26.6,71,26.5,-9.9
 2003/08/01, 8:15,26.9,71,26.6,-9.9
 2003/08/01, 8:30,27.1,70,26.7,-9.9
 2003/08/01, 8:45,27.4,69,26.8,-9.9
 2003/08/01, 9:00,27.5,69,27,-9.9
 2003/08/01, 9:15,27.8,69,27.3,-9.9
 2003/08/01, 9:30,28.1,69,27.5,-9.9
 2003/08/01, 9:45,28.3,69,27.6,-9.9
 2003/08/01,10:00,28.5,68,27.9,-9.9
 2003/08/01,10:15,28.7,68,28.1,-9.9
 2003/08/01,10:30,28.7,68,28.2,-9.9
 2003/08/01,10:45,29,67,28.3,-9.9
 2003/08/01,11:00,29.2,65,28.6,-9.9
 2003/08/01,11:15,29.8,62,28.9,-9.9
 2003/08/01,11:30,29.6,63,29,-9.9
 2003/08/01,11:45,29.4,64,28.8,-9.9
 2003/08/01,12:00,29.2,64,28.6,-9.9
 2003/08/01,12:15,29.4,63,28.7,-9.9
 2003/08/01,12:30,29.4,63,28.8,-9.9
 2003/08/01,12:45,29.7,61,29.2,-9.9
 2003/08/01,13:00,29.6,63,29.2,-9.9
 2003/08/01,13:15,29.5,62,29.1,-9.9
 2003/08/01,13:30,29.5,63,29.1,-9.9
 2003/08/01,13:45,29.6,64,29.1,-9.9
 2003/08/01,14:00,29.6,63,29.2,-9.9
 2003/08/01,14:15,29.7,62,29.3,-9.9
 2003/08/01,14:30,29.8,59,29.4,-9.9
 2003/08/01,14:45,29.8,58,29.4,-9.9
 2003/08/01,15:00,29.7,59,29.3,-9.9
 2003/08/01,15:15,29.7,59,29.3,-9.9
 2003/08/01,15:30,29.7,58,29.3,-9.9
 2003/08/01,15:45,29.8,57,29.4,-9.9
 2003/08/01,16:00,29.9,56,29.5,-9.9
 2003/08/01,16:15,29.9,55,29.6,-9.9
 2003/08/01,16:30,30,55,29.7,-9.9
 2003/08/01,16:45,30,54,29.7,-9.9
 2003/08/01,17:00,30,53,29.8,-9.9
 2003/08/01,17:15,30,53,29.8,-9.9
 2003/08/01,17:30,30.1,54,29.7,-9.9
 2003/08/01,17:45,30,55,29.7,-9.9
 2003/08/01,18:00,30,56,29.6,-9.9
 2003/08/01,18:15,29.2,56,29.6,-9.9
 2003/08/01,18:30,28.6,54,29.5,-9.9
 2003/08/01,18:45,29.5,62,29.5,-9.9
 2003/08/01,19:00,28.8,59,29.5,-9.9
 2003/08/01,19:15,29.2,61,29.2,-9.9
 2003/08/01,19:30,29.4,62,29,-9.9
 2003/08/01,19:45,29.4,60,28.9,-9.9
 2003/08/01,20:00,29.6,61,29,-9.9
 2003/08/01,20:15,29.6,61,29,-9.9
 2003/08/01,20:30,29.3,62,28.6,-9.9
 2003/08/01,20:45,29.2,64,28.4,-9.9
 2003/08/01,21:00,29.1,65,28.2,-9.9
 2003/08/01,21:15,29,66,28.1,-9.9
 2003/08/01,21:30,29,67,28.1,-9.9
 2003/08/01,21:45,28.9,68,28,-9.9
 2003/08/01,22:00,28.9,68,27.8,-9.9
 2003/08/01,22:15,28.9,67,27.6,-9.9
 2003/08/01,22:30,28.9,69,27.5,-9.9
 2003/08/01,22:45,28.7,70,27.4,-9.9
 2003/08/01,23:00,28.5,71,27.3,-9.9
 2003/08/01,23:15,28.3,72,27.2,-9.9
 2003/08/01,23:30,28.3,72,27.2,-9.9
 2003/08/01,23:45,28.3,72,27.2,-9.9
 2003/08/02, 0:00,28.1,72,27.1,-9.9
 2003/08/02, 0:15,28.1,72,27.1,-9.9
 2003/08/02, 0:30,27.9,73,27,-9.9
 2003/08/02, 0:45,27.9,73,26.9,-9.9
 2003/08/02, 1:00,27.8,73,26.9,-9.9
 2003/08/02, 1:15,27.8,74,26.9,-9.9
 2003/08/02, 1:30,27.8,73,26.8,-9.9
 2003/08/02, 1:45,27.7,73,27,-9.9
 2003/08/02, 2:00,27.8,73,27.2,-9.9
 2003/08/02, 2:15,27.6,73,27.3,-9.9
 2003/08/02, 2:30,27.7,73,27.4,-9.9
 2003/08/02, 2:45,27.4,74,27.5,-9.9
 2003/08/02, 3:00,27.6,74,27.5,-9.9
 2003/08/02, 3:15,27.6,74,27.6,-9.9
 2003/08/02, 3:30,27.4,74,27.6,-9.9
 2003/08/02, 3:45,27.2,76,27.6,-9.9
 2003/08/02, 4:00,27,77,27.6,-9.9
 2003/08/02, 4:15,27.1,76,27.7,-9.9
 2003/08/02, 4:30,27,76,27.7,-9.9
 2003/08/02, 4:45,27,77,27.6,-9.9
 2003/08/02, 5:00,26.8,78,27.6,-9.9
 2003/08/02, 5:15,26.8,78,27.5,-9.9
 2003/08/02, 5:30,27.1,78,27.5,-9.9
 2003/08/02, 5:45,26.8,78,27.5,-9.9
 2003/08/02, 6:00,26.7,78,27.5,-9.9
 2003/08/02, 6:15,26.8,78,27.5,-9.9
 2003/08/02, 6:30,26.9,78,27.5,-9.9
 2003/08/02, 6:45,27.1,78,27.5,-9.9
 2003/08/02, 7:00,27.4,76,27.5,-9.9
 2003/08/02, 7:15,27.1,77,27.5,-9.9
 2003/08/02, 7:30,27,76,27.3,-9.9
 2003/08/02, 7:45,27.3,75,27.3,-9.9
 2003/08/02, 8:00,27.6,75,27.4,-9.9
 2003/08/02, 8:15,27.8,74,27.5,-9.9
 2003/08/02, 8:30,28,73,27.6,-9.9
 2003/08/02, 8:45,28.2,73,27.7,-9.9
 2003/08/02, 9:00,28.4,73,27.9,-9.9
 2003/08/02, 9:15,28.5,72,28.1,-9.9
 2003/08/02, 9:30,28.8,71,28.3,-9.9
 2003/08/02, 9:45,29,70,28.4,-9.9
 2003/08/02,10:00,29.2,68,28.7,-9.9
 2003/08/02,10:15,29.5,66,28.9,-9.9
 2003/08/02,10:30,29.7,62,29.2,-9.9
 2003/08/02,10:45,29.9,61,29.4,-9.9
 2003/08/02,11:00,30,60,29.6,-9.9
 2003/08/02,11:15,29.8,61,29.5,-9.9
 2003/08/02,11:30,29.7,58,29.5,-9.9
 2003/08/02,11:45,29,55,29.3,-9.9
 2003/08/02,12:00,29.6,55,29.3,-9.9
 2003/08/02,12:15,29.2,57,29.4,-9.9
 2003/08/02,12:30,29.6,57,29.4,-9.9
 2003/08/02,12:45,30.3,61,29.5,-9.9
 2003/08/02,13:00,29.6,61,29.5,-9.9
 2003/08/02,13:15,30.4,62,29.6,-9.9
 2003/08/02,13:30,30,64,29.7,-9.9
 2003/08/02,13:45,29.9,57,29.7,-9.9
 2003/08/02,14:00,30.1,62,29.8,-9.9
 2003/08/02,14:15,29.5,58,29.8,-9.9
 2003/08/02,14:30,30.5,59,30.1,-9.9
 2003/08/02,14:45,30.7,58,30.3,-9.9
 2003/08/02,15:00,30.8,58,30.3,-9.9
 2003/08/02,15:15,30.9,59,30.3,-9.9
 2003/08/02,15:30,30.8,58,30.4,-9.9
 2003/08/02,15:45,31,58,30.5,-9.9
 2003/08/02,16:00,31.1,58,30.5,-9.9
 2003/08/02,16:15,31.1,55,30.4,-9.9
 2003/08/02,16:30,31,56,30.3,-9.9
 2003/08/02,16:45,31,57,30.2,-9.9
 2003/08/02,17:00,31,56,30,-9.9
 2003/08/02,17:15,30.9,57,29.7,-9.9
 2003/08/02,17:30,30.9,56,29.6,-9.9
 2003/08/02,17:45,30.8,55,29.5,-9.9
 2003/08/02,18:00,30.8,57,29.4,-9.9
 2003/08/02,18:15,30.7,58,29.3,-9.9
 2003/08/02,18:30,30.6,60,29,-9.9
 2003/08/02,18:45,30.3,61,28.9,-9.9
 2003/08/02,19:00,30.2,63,28.8,-9.9
 2003/08/02,19:15,29.8,65,29,-9.9
 2003/08/02,19:30,30,64,29.3,-9.9
 2003/08/02,19:45,30.1,65,29.1,-9.9
 2003/08/02,20:00,30,66,29,-9.9
 2003/08/02,20:15,29.9,66,28.8,-9.9
 2003/08/02,20:30,30,66,28.9,-9.9
 2003/08/02,20:45,29.9,66,29.1,-9.9
 2003/08/02,21:00,29.8,67,29.3,-9.9
 2003/08/02,21:15,30.1,67,29.3,-9.9
 2003/08/02,21:30,30.1,67,29.3,-9.9
 2003/08/02,21:45,30.1,67,29.5,-9.9
 2003/08/02,22:00,29.7,69,29.6,-9.9
 2003/08/02,22:15,29.6,69,29.7,-9.9
 2003/08/02,22:30,29.4,70,29.5,-9.9
 2003/08/02,22:45,29.5,69,29.5,-9.9
 2003/08/02,23:00,29.4,70,29.5,-9.9
 2003/08/02,23:15,29.3,71,29.4,-9.9
 2003/08/02,23:30,29.2,71,29.4,-9.9
 2003/08/02,23:45,28.9,72,29.4,-9.9
 2003/08/03, 0:00,28.8,72,29.3,-9.9
 2003/08/03, 0:15,28.9,73,29.3,-9.9
 2003/08/03, 0:30,28.7,73,29.4,-9.9
 2003/08/03, 0:45,28.9,72,29.4,-9.9
 2003/08/03, 1:00,28.8,73,29.4,-9.9
 2003/08/03, 1:15,29.1,71,29.2,-9.9
 2003/08/03, 1:30,29.1,71,29.1,-9.9
 2003/08/03, 1:45,28.9,71,28.8,-9.9
 2003/08/03, 2:00,28.9,71,28.7,-9.9
 2003/08/03, 2:15,28.7,72,28.9,-9.9
 2003/08/03, 2:30,28.8,70,28.7,-9.9
 2003/08/03, 2:45,28.8,71,28.6,-9.9
 2003/08/03, 3:00,28.7,71,28.4,-9.9
 2003/08/03, 3:15,28.7,72,28.3,-9.9
 2003/08/03, 3:30,28.6,72,28.2,-9.9
 2003/08/03, 3:45,28.6,72,28.1,-9.9
 2003/08/03, 4:00,28.4,73,28.2,-9.9
 2003/08/03, 4:15,28.5,72,28.2,-9.9
 2003/08/03, 4:30,27.9,75,28.3,-9.9
 2003/08/03, 4:45,28.5,72,28.2,-9.9
 2003/08/03, 5:00,28.3,72,28.2,-9.9
 2003/08/03, 5:15,27.9,75,28.3,-9.9
 2003/08/03, 5:30,27.5,76,28.3,-9.9
 2003/08/03, 5:45,28.1,75,28.3,-9.9
 2003/08/03, 6:00,27.8,75,28.3,-9.9
 2003/08/03, 6:15,27.6,76,28.3,-9.9
 2003/08/03, 6:30,27.7,76,28.3,-9.9
 2003/08/03, 6:45,27.9,76,28.3,-9.9
 2003/08/03, 7:00,27.8,76,28.3,-9.9
 2003/08/03, 7:15,28.1,75,28.3,-9.9
 2003/08/03, 7:30,28.1,75,28.4,-9.9
 2003/08/03, 7:45,28.5,74,28.4,-9.9
 2003/08/03, 8:00,28.7,74,28.5,-9.9
 2003/08/03, 8:15,28.8,72,28.6,-9.9
 2003/08/03, 8:30,29.1,70,28.8,-9.9
 2003/08/03, 8:45,29.3,69,28.9,-9.9
 2003/08/03, 9:00,29.5,66,29.1,-9.9
 2003/08/03, 9:15,29.7,64,29.2,-9.9
 2003/08/03, 9:30,29.8,64,29.3,-9.9
 2003/08/03, 9:45,29.9,66,29.2,-9.9
 2003/08/03,10:00,30,66,29.2,-9.9
 2003/08/03,10:15,30.1,65,29.3,-9.9
 2003/08/03,10:30,30.2,66,29.4,-9.9
 2003/08/03,10:45,30.3,65,29.5,-9.9
 2003/08/03,11:00,30.4,64,29.6,-9.9
 2003/08/03,11:15,30.4,64,29.6,-9.9
 2003/08/03,11:30,30.9,63,29.9,-9.9
 2003/08/03,11:45,30.8,61,30.1,-9.9
 2003/08/03,12:00,30.7,62,30,-9.9
 2003/08/03,12:15,30.3,59,30.2,-9.9
 2003/08/03,12:30,30,60,30.1,-9.9
 2003/08/03,12:45,30.9,65,30.2,-9.9
 2003/08/03,13:00,30.6,58,30.2,-9.9
 2003/08/03,13:15,30.5,54,30.3,-9.9
 2003/08/03,13:30,30.4,54,30.4,-9.9
 2003/08/03,13:45,30.4,53,30.4,-9.9
 2003/08/03,14:00,30.1,52,30.5,-9.9
 2003/08/03,14:15,30.1,52,30.6,-9.9
 2003/08/03,14:30,30,50,30.7,-9.9
 2003/08/03,14:45,29.5,50,30.8,-9.9
 2003/08/03,15:00,29.2,49,30.9,-9.9
 2003/08/03,15:15,28.9,48,30.9,-9.9
 2003/08/03,15:30,28.9,48,31,-9.9
 2003/08/03,15:45,28.7,48,31,-9.9
 2003/08/03,16:00,28.6,49,31,-9.9
 2003/08/03,16:15,28.5,48,31.1,-9.9
 2003/08/03,16:30,28.4,48,31.1,-9.9
 2003/08/03,16:45,28.4,47,31.2,-9.9
 2003/08/03,17:00,28.3,48,31.3,-9.9
 2003/08/03,17:15,28.5,51,31.5,-9.9
 2003/08/03,17:30,28.6,51,31.5,-9.9
 2003/08/03,17:45,29.1,56,31.5,-9.9
 2003/08/03,18:00,30.1,62,31.4,-9.9
 2003/08/03,18:15,30.2,63,31.3,-9.9
 2003/08/03,18:30,30.3,63,30.9,-9.9
 2003/08/03,18:45,30.3,64,30.4,-9.9
 2003/08/03,19:00,30.3,64,29.9,-9.9
 2003/08/03,19:15,30.2,65,29.7,-9.9
 2003/08/03,19:30,30.1,65,29.6,-9.9
 2003/08/03,19:45,30,66,29.8,-9.9
 2003/08/03,20:00,30,66,30,-9.9
 2003/08/03,20:15,30.1,66,30.1,-9.9
 2003/08/03,20:30,30,67,30.5,-9.9
 2003/08/03,20:45,30.2,65,30.5,-9.9
 2003/08/03,21:00,29.1,58,30.4,-9.9
 2003/08/03,21:15,29.7,60,30.4,-9.9
 2003/08/03,21:30,29.4,58,30.4,-9.9
 2003/08/03,21:45,28.8,55,30.4,-9.9
 2003/08/03,22:00,30,62,30.3,-9.9
 2003/08/03,22:15,29.6,61,30.4,-9.9
 2003/08/03,22:30,29.1,56,30.4,-9.9
 2003/08/03,22:45,29.2,55,30.4,-9.9
 2003/08/03,23:00,29.2,54,30.3,-9.9
 2003/08/03,23:15,29.2,52,30.3,-9.9
 2003/08/03,23:30,29,52,30.2,-9.9
 2003/08/03,23:45,28.8,52,30.1,-9.9
 2003/08/04, 0:00,29,54,30,-9.9
 2003/08/04, 0:15,29.5,61,30,-9.9
 2003/08/04, 0:30,29.7,65,29.8,-9.9
 2003/08/04, 0:45,29.7,67,29.6,-9.9
 2003/08/04, 1:00,29.7,68,29.6,-9.9
 2003/08/04, 1:15,29.6,69,29.4,-9.9
 2003/08/04, 1:30,29.5,69,29.3,-9.9
 2003/08/04, 1:45,29.5,69,29.3,-9.9
 2003/08/04, 2:00,29.5,70,29.3,-9.9
 2003/08/04, 2:15,29.5,70,29.3,-9.9
 2003/08/04, 2:30,29.5,70,29.2,-9.9
 2003/08/04, 2:45,29.4,70,29.2,-9.9
 2003/08/04, 3:00,29.3,71,29.3,-9.9
 2003/08/04, 3:15,29.3,71,29.3,-9.9
 2003/08/04, 3:30,29.1,72,29.2,-9.9
 2003/08/04, 3:45,29.1,72,29.2,-9.9
 2003/08/04, 4:00,29.2,72,29.2,-9.9
 2003/08/04, 4:15,29.2,72,29.2,-9.9
 2003/08/04, 4:30,29.1,72,29.2,-9.9
 2003/08/04, 4:45,29.1,72,29.1,-9.9
 2003/08/04, 5:00,29,72,29,-9.9
 2003/08/04, 5:15,28.8,73,29,-9.9
 2003/08/04, 5:30,28.9,72,29,-9.9
 2003/08/04, 5:45,28.9,73,28.9,-9.9
 2003/08/04, 6:00,28.8,73,28.9,-9.9
 2003/08/04, 6:15,28.7,73,28.8,-9.9
 2003/08/04, 6:30,28.7,74,28.9,-9.9
 2003/08/04, 6:45,28.8,74,28.9,-9.9
 2003/08/04, 7:00,29,73,29,-9.9
 2003/08/04, 7:15,29,73,29,-9.9
 2003/08/04, 7:30,28.9,73,28.8,-9.9
 2003/08/04, 7:45,29.1,73,28.9,-9.9
 2003/08/04, 8:00,29.2,72,29,-9.9
 2003/08/04, 8:15,29.3,71,29,-9.9
 2003/08/04, 8:30,29.4,71,29.1,-9.9
 2003/08/04, 8:45,29.5,71,29.2,-9.9
 2003/08/04, 9:00,29.7,71,29.4,-9.9
 2003/08/04, 9:15,29.8,70,29.6,-9.9
 2003/08/04, 9:30,30,70,29.6,-9.9
 2003/08/04, 9:45,30,68,29.7,-9.9
 2003/08/04,10:00,30,67,29.7,-9.9
 2003/08/04,10:15,30.2,68,29.7,-9.9
 2003/08/04,10:30,30.3,68,29.7,-9.9
 2003/08/04,10:45,30.3,68,29.7,-9.9
 2003/08/04,11:00,30.5,67,29.8,-9.9
 2003/08/04,11:15,30.5,67,29.9,-9.9
 2003/08/04,11:30,30.6,67,30,-9.9
 2003/08/04,11:45,30.7,66,30.1,-9.9
 2003/08/04,12:00,30.8,66,30.3,-9.9
 2003/08/04,12:15,30.9,65,30.5,-9.9
 2003/08/04,12:30,31.1,65,30.7,-9.9
 2003/08/04,12:45,31.1,65,30.8,-9.9
 2003/08/04,13:00,31.3,64,31.1,-9.9
 2003/08/04,13:15,31.5,63,31.4,-9.9
 2003/08/04,13:30,31.6,63,31.4,-9.9
 2003/08/04,13:45,31.6,62,31.4,-9.9
 2003/08/04,14:00,31.8,62,31.5,-9.9
 2003/08/04,14:15,31.8,62,31.6,-9.9
 2003/08/04,14:30,31.8,62,31.7,-9.9
 2003/08/04,14:45,31.9,62,31.7,-9.9
 2003/08/04,15:00,31.9,62,31.7,-9.9
 2003/08/04,15:15,31.9,62,31.8,-9.9
 2003/08/04,15:30,32,61,32,-9.9
 2003/08/04,15:45,32,60,32,-9.9
 2003/08/04,16:00,32.1,60,32,-9.9
 2003/08/04,16:15,32.1,58,31.9,-9.9
 2003/08/04,16:30,32,57,31.8,-9.9
 2003/08/04,16:45,32,59,31.7,-9.9
 2003/08/04,17:00,32,59,31.6,-9.9
 2003/08/04,17:15,32,59,31.5,-9.9
 2003/08/04,17:30,32.1,60,31.3,-9.9
 2003/08/04,17:45,32,60,31.1,-9.9
 2003/08/04,18:00,31.8,59,31,-9.9
 2003/08/04,18:15,31.5,58,31,-9.9
 2003/08/04,18:30,31.1,55,31,-9.9
 2003/08/04,18:45,30.9,53,30.9,-9.9
 2003/08/04,19:00,31.5,60,30.8,-9.9
 2003/08/04,19:15,31.6,60,30.5,-9.9
 2003/08/04,19:30,31.5,61,30.3,-9.9
 2003/08/04,19:45,31.4,62,30.2,-9.9
 2003/08/04,20:00,31.3,63,30.1,-9.9
 2003/08/04,20:15,31.2,64,30.1,-9.9
 2003/08/04,20:30,30.2,56,30.3,-9.9
 2003/08/04,20:45,29.8,53,30.5,-9.9
 2003/08/04,21:00,29.4,49,30.6,-9.9
 2003/08/04,21:15,29.1,48,30.6,-9.9
 2003/08/04,21:30,29.3,51,30.7,-9.9
 2003/08/04,21:45,29.3,51,30.8,-9.9
 2003/08/04,22:00,29.2,51,30.8,-9.9
 2003/08/04,22:15,29.1,50,30.8,-9.9
 2003/08/04,22:30,29.1,49,30.8,-9.9
 2003/08/04,22:45,29.6,50,30.8,-9.9
 2003/08/04,23:00,30.2,61,30.8,-9.9
 2003/08/04,23:15,30.4,68,30.5,-9.9
 2003/08/04,23:30,30.3,68,30.4,-9.9
 2003/08/04,23:45,30.3,68,30.4,-9.9
 2003/08/05, 0:00,30.4,68,30.2,-9.9
 2003/08/05, 0:15,30.4,68,30.1,-9.9
 2003/08/05, 0:30,30.4,69,30,-9.9
 2003/08/05, 0:45,30.1,69,30.1,-9.9
 2003/08/05, 1:00,30.2,70,30.2,-9.9
 2003/08/05, 1:15,30.3,69,30.1,-9.9
 2003/08/05, 1:30,30.1,69,30.1,-9.9
 2003/08/05, 1:45,30.1,69,30.1,-9.9
 2003/08/05, 2:00,29.6,72,29.9,-9.9
 2003/08/05, 2:15,29.7,72,30,-9.9
 2003/08/05, 2:30,29.9,71,29.8,-9.9
 2003/08/05, 2:45,29.8,71,29.8,-9.9
 2003/08/05, 3:00,29.8,71,29.8,-9.9
 2003/08/05, 3:15,29.8,72,29.8,-9.9
 2003/08/05, 3:30,29.8,71,29.7,-9.9
 2003/08/05, 3:45,29.3,72,29.7,-9.9
 2003/08/05, 4:00,29.5,72,29.6,-9.9
 2003/08/05, 4:15,29.5,72,29.3,-9.9
 2003/08/05, 4:30,29.5,72,29.2,-9.9
 2003/08/05, 4:45,29.1,73,29.3,-9.9
 2003/08/05, 5:00,29,74,29.3,-9.9
 2003/08/05, 5:15,29.3,73,29.2,-9.9
 2003/08/05, 5:30,29.2,73,29,-9.9
 2003/08/05, 5:45,28.8,74,29,-9.9
 2003/08/05, 6:00,28.6,75,29,-9.9
 2003/08/05, 6:15,28.5,76,29,-9.9
 2003/08/05, 6:30,28.6,75,28.9,-9.9
 2003/08/05, 6:45,28.8,74,28.9,-9.9
 2003/08/05, 7:00,28.8,74,28.8,-9.9
 2003/08/05, 7:15,29,73,28.9,-9.9
 2003/08/05, 7:30,29,73,28.9,-9.9
 2003/08/05, 7:45,29.1,73,28.9,-9.9
 2003/08/05, 8:00,29.4,72,29,-9.9
 2003/08/05, 8:15,29.6,71,29.2,-9.9
 2003/08/05, 8:30,29.8,71,29.3,-9.9
 2003/08/05, 8:45,29.8,71,29.6,-9.9
 2003/08/05, 9:00,30.1,71,29.9,-9.9
 2003/08/05, 9:15,30.3,71,30.1,-9.9
 2003/08/05, 9:30,30.4,70,30.2,-9.9
 2003/08/05, 9:45,30.6,69,30.3,-9.9
 2003/08/05,10:00,30.7,69,30.5,-9.9
 2003/08/05,10:15,30.7,67,30.4,-9.9
 2003/08/05,10:30,30.8,67,30.6,-9.9
 2003/08/05,10:45,31.2,65,31.1,-9.9
 2003/08/05,11:00,31.4,66,31.5,-9.9
 2003/08/05,11:15,31.5,64,31.8,-9.9
 2003/08/05,11:30,31.5,64,32,-9.9
 2003/08/05,11:45,31.7,64,32,-9.9
 2003/08/05,12:00,31.8,63,32.3,-9.9
 2003/08/05,12:15,32,62,32.2,-9.9
 2003/08/05,12:30,32.1,63,32.3,-9.9
 2003/08/05,12:45,32,62,32.2,-9.9
 2003/08/05,13:00,32,62,32.1,-9.9
 2003/08/05,13:15,32.2,62,32.1,-9.9
 2003/08/05,13:30,32.4,61,32.4,-9.9
 2003/08/05,13:45,32.4,61,32.5,-9.9
 2003/08/05,14:00,32.5,60,32.7,-9.9
 2003/08/05,14:15,32.5,61,32.7,-9.9
 2003/08/05,14:30,32.6,60,32.7,-9.9
 2003/08/05,14:45,32.7,59,32.7,-9.9
 2003/08/05,15:00,32.7,58,32.8,-9.9
 2003/08/05,15:15,32.8,57,32.9,-9.9
 2003/08/05,15:30,32.8,56,32.9,-9.9
 2003/08/05,15:45,32.9,58,32.8,-9.9
 2003/08/05,16:00,32.7,61,32.3,-9.9
 2003/08/05,16:15,32.6,62,32,-9.9
 2003/08/05,16:30,32.4,62,31.7,-9.9
 2003/08/05,16:45,32.3,63,31.6,-9.9
 2003/08/05,17:00,32.1,63,31.4,-9.9
 2003/08/05,17:15,32.1,63,31.3,-9.9
 2003/08/05,17:30,32,61,31.2,-9.9
 2003/08/05,17:45,31.8,60,31.1,-9.9
 2003/08/05,18:00,31.9,61,31.2,-9.9
 2003/08/05,18:15,31.8,58,31.4,-9.9
 2003/08/05,18:30,31.6,55,31.6,-9.9
 2003/08/05,18:45,31,62,31.2,-9.9
 2003/08/05,19:00,31.1,56,31.3,-9.9
 2003/08/05,19:15,31.4,55,31.5,-9.9
 2003/08/05,19:30,30.4,51,31.6,-9.9
 2003/08/05,19:45,30.1,56,31.7,-9.9
 2003/08/05,20:00,30.4,53,31.7,-9.9
 2003/08/05,20:15,30.7,54,31.8,-9.9
 2003/08/05,20:30,30.3,53,31.8,-9.9
 2003/08/05,20:45,30.3,51,31.8,-9.9
 2003/08/05,21:00,30.3,52,31.8,-9.9
 2003/08/05,21:15,30.1,51,31.8,-9.9
 2003/08/05,21:30,30.1,51,31.8,-9.9
 2003/08/05,21:45,30.2,52,31.7,-9.9
 2003/08/05,22:00,30.2,52,31.7,-9.9
 2003/08/05,22:15,30.1,52,31.7,-9.9
 2003/08/05,22:30,30.2,53,31.6,-9.9
 2003/08/05,22:45,30,52,31.6,-9.9
 2003/08/05,23:00,29.9,52,31.5,-9.9
 2003/08/05,23:15,29.9,51,31.4,-9.9
 2003/08/05,23:30,30.3,59,31.2,-9.9
 2003/08/05,23:45,30.4,65,31.1,-9.9
 2003/08/06, 0:00,30.3,65,31.1,-9.9
 2003/08/06, 0:15,29.8,69,31,-9.9
 2003/08/06, 0:30,30,69,31,-9.9
 2003/08/06, 0:45,30,68,30.9,-9.9
 2003/08/06, 1:00,30.4,67,30.6,-9.9
 2003/08/06, 1:15,30.4,67,30.5,-9.9
 2003/08/06, 1:30,30.3,68,30.5,-9.9
 2003/08/06, 1:45,30,69,30.6,-9.9
 2003/08/06, 2:00,30,69,30.6,-9.9
 2003/08/06, 2:15,30.3,69,30.6,-9.9
 2003/08/06, 2:30,30.3,68,30.5,-9.9
 2003/08/06, 2:45,29.9,69,30.5,-9.9
 2003/08/06, 3:00,30,69,30.5,-9.9
 2003/08/06, 3:15,30.3,68,30.3,-9.9
 2003/08/06, 3:30,29.6,70,30.3,-9.9
 2003/08/06, 3:45,29.3,71,30.2,-9.9
 2003/08/06, 4:00,29.5,71,30.2,-9.9
 2003/08/06, 4:15,29.4,71,30.2,-9.9
 2003/08/06, 4:30,29.2,72,30.2,-9.9
 2003/08/06, 4:45,29.2,72,30.2,-9.9
 2003/08/06, 5:00,28.9,73,30.1,-9.9
 2003/08/06, 5:15,28.8,73,30,-9.9
 2003/08/06, 5:30,28.6,74,29.9,-9.9
 2003/08/06, 5:45,28.7,74,29.8,-9.9
 2003/08/06, 6:00,28.6,74,29.7,-9.9
 2003/08/06, 6:15,28.8,73,29.8,-9.9
 2003/08/06, 6:30,28.7,74,29.7,-9.9
 2003/08/06, 6:45,28.8,75,29.6,-9.9
 2003/08/06, 7:00,28.8,75,29.5,-9.9
 2003/08/06, 7:15,29,75,29.4,-9.9
 2003/08/06, 7:30,29,75,29.4,-9.9
 2003/08/06, 7:45,29.4,74,29.4,-9.9
 2003/08/06, 8:00,29.6,73,29.5,-9.9
 2003/08/06, 8:15,29.8,72,29.7,-9.9
 2003/08/06, 8:30,30,71,29.8,-9.9
 2003/08/06, 8:45,30.3,71,30.2,-9.9
 2003/08/06, 9:00,30.3,69,30.5,-9.9
 2003/08/06, 9:15,30.6,68,30.7,-9.9
 2003/08/06, 9:30,30,60,30.9,-9.9
 2003/08/06, 9:45,29.6,56,31,-9.9
 2003/08/06,10:00,29.5,53,31.1,-9.9
 2003/08/06,10:15,29.5,52,31.2,-9.9
 2003/08/06,10:30,29.6,50,31.3,-9.9
 2003/08/06,10:45,30.4,53,31.4,-9.9
 2003/08/06,11:00,30.9,55,31.5,-9.9
 2003/08/06,11:15,31.2,55,31.6,-9.9
 2003/08/06,11:30,31.8,55,32.1,-9.9
 2003/08/06,11:45,32,56,32.5,-9.9
 2003/08/06,12:00,32,56,32.4,-9.9
 2003/08/06,12:15,32.2,56,32.3,-9.9
 2003/08/06,12:30,32.3,57,32.2,-9.9
 2003/08/06,12:45,32.5,58,32,-9.9
 2003/08/06,13:00,32.6,58,32,-9.9
 2003/08/06,13:15,32.8,59,32,-9.9
 2003/08/06,13:30,32.9,58,32.1,-9.9
 2003/08/06,13:45,32.9,59,32.1,-9.9
 2003/08/06,14:00,33,59,32.1,-9.9
 2003/08/06,14:15,33.1,58,32.1,-9.9
 2003/08/06,14:30,33,59,32.1,-9.9
 2003/08/06,14:45,33.1,58,32.2,-9.9
 2003/08/06,15:00,33.2,59,32.2,-9.9
 2003/08/06,15:15,33.3,59,32.2,-9.9
 2003/08/06,15:30,33.4,59,32.2,-9.9
 2003/08/06,15:45,33.4,58,32.3,-9.9
 2003/08/06,16:00,33.4,57,32.3,-9.9
 2003/08/06,16:15,33.4,56,32.3,-9.9
 2003/08/06,16:30,33.4,55,32.4,-9.9
 2003/08/06,16:45,32.9,54,32.1,-9.9
 2003/08/06,17:00,32.7,53,31.8,-9.9
 2003/08/06,17:15,32.6,54,31.6,-9.9
 2003/08/06,17:30,32.5,56,31.5,-9.9
 2003/08/06,17:45,32.4,56,31.4,-9.9
 2003/08/06,18:00,32.4,57,31.4,-9.9
 2003/08/06,18:15,32.3,55,31.6,-9.9
 2003/08/06,18:30,32.1,53,31.6,-9.9
 2003/08/06,18:45,32.2,59,31.3,-9.9
 2003/08/06,19:00,31.9,60,30.8,-9.9
 2003/08/06,19:15,31.8,61,30.5,-9.9
 2003/08/06,19:30,31.8,62,30.1,-9.9
 2003/08/06,19:45,31.7,62,29.9,-9.9
 2003/08/06,20:00,31.5,64,29.9,-9.9
 2003/08/06,20:15,31.4,64,30.3,-9.9
 2003/08/06,20:30,31.4,64,30.6,-9.9
 2003/08/06,20:45,31.4,64,30.8,-9.9
 2003/08/06,21:00,31.4,64,31,-9.9
 2003/08/06,21:15,31.4,60,31.1,-9.9
 2003/08/06,21:30,30.6,54,31.1,-9.9
 2003/08/06,21:45,30,51,31.2,-9.9
 2003/08/06,22:00,29.7,49,31.2,-9.9
 2003/08/06,22:15,29.3,47,31.2,-9.9
 2003/08/06,22:30,29.1,46,31.2,-9.9
 2003/08/06,22:45,29.2,47,31.2,-9.9
 2003/08/06,23:00,29.5,49,31.2,-9.9
 2003/08/06,23:15,30.2,51,31.2,-9.9
 2003/08/06,23:30,30.8,67,30.9,-9.9
 2003/08/06,23:45,30.7,64,30.8,-9.9
 2003/08/07, 0:00,30.8,65,30.9,-9.9
 2003/08/07, 0:15,30.7,67,30.6,-9.9
 2003/08/07, 0:30,30.6,67,30.3,-9.9
 2003/08/07, 0:45,30.6,67,30.1,-9.9
 2003/08/07, 1:00,30.6,68,30,-9.9
 2003/08/07, 1:15,30.6,67,30,-9.9
 2003/08/07, 1:30,30.5,68,29.9,-9.9
 2003/08/07, 1:45,30.4,68,30,-9.9
 2003/08/07, 2:00,30.4,68,30.1,-9.9
 2003/08/07, 2:15,30.3,68,29.8,-9.9
 2003/08/07, 2:30,30.3,68,29.8,-9.9
 2003/08/07, 2:45,30.3,68,29.8,-9.9
 2003/08/07, 3:00,30.1,69,29.9,-9.9
 2003/08/07, 3:15,30.3,69,29.9,-9.9
 2003/08/07, 3:30,30,69,29.9,-9.9
 2003/08/07, 3:45,30,70,30,-9.9
 2003/08/07, 4:00,29.8,70,30,-9.9
 2003/08/07, 4:15,29.8,71,30,-9.9
 2003/08/07, 4:30,29.9,70,29.9,-9.9
 2003/08/07, 4:45,30,69,29.8,-9.9
 2003/08/07, 5:00,29.9,69,29.5,-9.9
 2003/08/07, 5:15,29.9,70,29.4,-9.9
 2003/08/07, 5:30,29.8,70,29.3,-9.9
 2003/08/07, 5:45,29.8,71,29.3,-9.9
 2003/08/07, 6:00,29.6,71,29.4,-9.9
 2003/08/07, 6:15,29.6,71,29.5,-9.9
 2003/08/07, 6:30,29.7,71,29.6,-9.9
 2003/08/07, 6:45,29.6,72,29.6,-9.9
 2003/08/07, 7:00,29.6,72,29.6,-9.9
 2003/08/07, 7:15,29.4,74,29.5,-9.9
 2003/08/07, 7:30,29.4,73,29.4,-9.9
 2003/08/07, 7:45,29.5,71,29.4,-9.9
 2003/08/07, 8:00,29.7,71,29.5,-9.9
 2003/08/07, 8:15,29.8,72,29.6,-9.9
 2003/08/07, 8:30,29.9,71,29.8,-9.9
 2003/08/07, 8:45,29.6,72,29.7,-9.9
 2003/08/07, 9:00,30,71,29.7,-9.9
 2003/08/07, 9:15,30.5,68,30,-9.9
 2003/08/07, 9:30,30.7,65,30.3,-9.9
 2003/08/07, 9:45,31,63,30.6,-9.9
 2003/08/07,10:00,31.2,60,30.8,-9.9
 2003/08/07,10:15,31.4,60,31.1,-9.9
 2003/08/07,10:30,31.6,60,31.4,-9.9
 2003/08/07,10:45,31.8,60,31.6,-9.9
 2003/08/07,11:00,31.8,59,31.7,-9.9
 2003/08/07,11:15,31.8,59,31.7,-9.9
 2003/08/07,11:30,32,59,32,-9.9
 2003/08/07,11:45,32.3,58,32.2,-9.9
 2003/08/07,12:00,32.2,58,32.3,-9.9
 2003/08/07,12:15,32.3,56,32.4,-9.9
 2003/08/07,12:30,32.4,55,32.4,-9.9
 2003/08/07,12:45,32.4,55,32.5,-9.9
 2003/08/07,13:00,32.5,54,32.6,-9.9
 2003/08/07,13:15,32.4,55,32.6,-9.9
 2003/08/07,13:30,32.5,60,32.3,-9.9
 2003/08/07,13:45,32.4,61,31.8,-9.9
 2003/08/07,14:00,32.2,61,31.4,-9.9
 2003/08/07,14:15,32.1,61,31.3,-9.9
 2003/08/07,14:30,32,61,31.2,-9.9
 2003/08/07,14:45,32,62,31.2,-9.9
 2003/08/07,15:00,31.9,62,31.2,-9.9
 2003/08/07,15:15,31.9,63,31.1,-9.9
 2003/08/07,15:30,31.9,63,31,-9.9
 2003/08/07,15:45,31.8,64,30.8,-9.9
 2003/08/07,16:00,31.7,64,30.6,-9.9
 2003/08/07,16:15,31.6,64,30.5,-9.9
 2003/08/07,16:30,31.6,64,30.4,-9.9
 2003/08/07,16:45,31.5,64,30.4,-9.9
 2003/08/07,17:00,31.4,65,30.4,-9.9
 2003/08/07,17:15,31.4,65,30.6,-9.9
 2003/08/07,17:30,31.4,64,30.8,-9.9
 2003/08/07,17:45,31.5,64,31,-9.9
 2003/08/07,18:00,31.6,64,31.1,-9.9
 2003/08/07,18:15,31.4,65,31.2,-9.9
 2003/08/07,18:30,31.4,66,31.3,-9.9
 2003/08/07,18:45,31.5,66,31.4,-9.9
 2003/08/07,19:00,30.6,58,31.4,-9.9
 2003/08/07,19:15,30.2,56,31.5,-9.9
 2003/08/07,19:30,30,55,31.5,-9.9